This is the latest recevied weather packets stored in our database for station/object FW7644. If no packets are shown the sender has not sent any weather packets the latest 10 day(s).
| Time | Temp. | Humidity | Pressure | Rain* | Wind** | Luminosity | Snow |
|---|---|---|---|---|---|---|---|
| 1777414652 | 13.89° C | 96% | 1018.6 hPa | 1.78 mm | - | - | - |
| 1777414350 | 13.89° C | 96% | 1018.6 hPa | 1.78 mm | - | - | - |
| 1777414048 | 13.89° C | 96% | 1018.6 hPa | 1.78 mm | - | - | - |
| 1777413746 | 13.89° C | 96% | 1018.5 hPa | 1.78 mm | - | - | - |
| 1777413444 | 13.89° C | 96% | 1018.3 hPa | 2.29 mm | - | - | - |
| 1777413142 | 13.89° C | 96% | 1018.3 hPa | 2.29 mm | - | - | - |
| 1777412841 | 13.89° C | 96% | 1018.3 hPa | 2.54 mm | - | - | - |
| 1777412539 | 13.89° C | 96% | 1018.3 hPa | 2.03 mm | - | - | - |
| 1777412237 | 13.89° C | 96% | 1018.3 hPa | 1.78 mm | - | - | - |
| 1777411935 | 13.89° C | 95% | 1018.4 hPa | 1.52 mm | - | - | - |
| 1777411633 | 13.89° C | 95% | 1018.5 hPa | 1.78 mm | - | - | - |
| 1777411331 | 13.89° C | 96% | 1018.4 hPa | 1.78 mm | - | - | - |
| 1777411030 | 13.89° C | 95% | 1018.3 hPa | 1.78 mm | - | - | - |
| 1777410728 | 13.89° C | 95% | 1018.3 hPa | 1.78 mm | - | - | - |
| 1777410426 | 13.89° C | 95% | 1018.4 hPa | 2.03 mm | - | - | - |
| 1777410125 | 13.89° C | 95% | 1018.4 hPa | 2.03 mm | - | - | - |
| 1777409823 | 13.89° C | 95% | 1018.3 hPa | 2.03 mm | - | - | - |
| 1777409521 | 13.89° C | 95% | 1018.2 hPa | 1.78 mm | - | - | - |
| 1777409219 | 13.89° C | 95% | 1018.2 hPa | 1.78 mm | - | - | - |
| 1777408918 | 13.89° C | 95% | 1018.2 hPa | 1.52 mm | - | - | - |
| 1777408616 | 13.89° C | 95% | 1018.2 hPa | 1.52 mm | - | - | - |
| 1777408314 | 13.89° C | 95% | 1018.1 hPa | 1.52 mm | - | - | - |
| 1777408012 | 13.89° C | 94% | 1018.1 hPa | 1.27 mm | - | - | - |
| 1777407710 | 13.89° C | 94% | 1018.4 hPa | 1.02 mm | - | - | - |
| 1777407409 | 13.89° C | 94% | 1018.4 hPa | 1.02 mm | - | - | - |
* Rain latest hour (hover to see other rain measurements)
** Current wind speed in m/s (hover to see current wind gust speed)